Princeton, MN

1:42 AM CDT on September 20, 2017 (GMT -0500)
Princeton Municipal

Weather History for KPNM - August, 2013

Change the Weather History Date:

Saturday, August 17, 2013

  Actual Average Record
Temperature  
Mean Temperature 65 °F -  
Max Temperature 80 °F 76 °F 89 °F (2003)
Min Temperature 50 °F 54 °F 37 °F (2012)
Growing Degree Days 15 (Base 50)    
Moisture  
Dew Point 53 °F    
Average Humidity 65    
Maximum Humidity 94    
Minimum Humidity 39    
Precipitation  
Precipitation 0.00 in - - ()
Sea Level Pressure  
Sea Level Pressure 30.16 in    
Wind  
Wind Speed 4 mph (SSE)    
Max Wind Speed 16 mph    
Max Gust Speed 23 mph    
Visibility 10 miles    
Events      
Averages and records for this station are not official NWS values.
T = Trace of Precipitation, MM = Missing Value Source: NWS Daily Summary

Daily Weather History Graph

Daily Weather History Graph

Search for Another Location

Airport or City:

Trip Planner

Search our weather history database for the weather conditions in past years. The results will help you decide how hot, cold, wet, or windy it might be!

Date:

Astronomy

Aug. 17, 2013 Rise Set
Actual Time 6:17 AM CDT 8:18 PM CDT
Civil Twilight 5:45 AM CDT 8:50 PM CDT
Nautical Twilight 5:06 AM CDT 9:29 PM CDT
Astronomical Twilight 4:22 AM CDT 10:12 PM CDT
Moon 5:39 PM CDT (8/17) 2:15 AM CDT (8/17)
Length of Visible Light 15h 04m
Length of Day
14h 00m
Waxing Gibbous, 84% of the Moon is Illuminated
Aug 17
Waxing Gibbous
Aug 20
Full
Aug 28
Last Quarter
Sep 5
New
Sep 12
First Quarter

Hourly Weather History & Observations

Time (CDT) Temp. Heat Index Dew Point Humidity Pressure Visibility Wind Dir Wind Speed Gust Speed Precip Events Conditions
12:01 AM 53.6 °F - 51.8 °F 94% 30.18 in 10.0 mi Calm Calm - N/A   Clear
12:21 AM 53.6 °F - 51.8 °F 94% 30.18 in 10.0 mi Calm Calm - N/A   Clear
12:41 AM 53.6 °F - 51.8 °F 94% 30.18 in 10.0 mi Calm Calm - N/A   Clear
1:01 AM 53.6 °F - 51.8 °F 94% 30.18 in 10.0 mi Calm Calm - N/A   Clear
1:21 AM 53.6 °F - 51.8 °F 94% 30.18 in 10.0 mi Calm Calm - N/A   Clear
1:41 AM 53.6 °F - 51.8 °F 94% 30.18 in 10.0 mi ESE 1.2 mph - N/A   Clear
2:01 AM 53.6 °F - 51.8 °F 94% 30.18 in 10.0 mi Calm Calm - N/A   Clear
2:21 AM 51.8 °F - 48.2 °F 88% 30.18 in 10.0 mi Calm Calm - N/A   Clear
2:41 AM - - - N/A% 30.18 in 10.0 mi Calm Calm - N/A   Clear
3:01 AM 50.0 °F - 48.2 °F 94% 30.18 in 10.0 mi Calm Calm - N/A   Clear
3:21 AM 51.8 °F - 50.0 °F 94% 30.18 in 10.0 mi Calm Calm - N/A   Clear
3:41 AM 51.8 °F - 48.2 °F 88% 30.18 in 10.0 mi Calm Calm - N/A   Clear
4:01 AM 51.8 °F - 50.0 °F 94% 30.18 in 10.0 mi Calm Calm - N/A   Clear
4:21 AM 51.8 °F - 50.0 °F 94% 30.18 in 10.0 mi SE 2.3 mph - N/A   Clear
4:41 AM 51.8 °F - 50.0 °F 94% 30.18 in 10.0 mi SE 1.2 mph - N/A   Clear
5:01 AM 51.8 °F - 48.2 °F 88% 30.19 in 10.0 mi Calm Calm - N/A   Clear
5:21 AM 51.8 °F - 48.2 °F 88% 30.19 in 10.0 mi SE 2.3 mph - N/A   Clear
5:41 AM 51.8 °F - 50.0 °F 94% 30.19 in 10.0 mi SSE 2.3 mph - N/A   Clear
6:01 AM 51.8 °F - 50.0 °F 94% 30.19 in 7.0 mi SE 2.3 mph - N/A   Clear
6:21 AM 51.8 °F - 50.0 °F 94% 30.19 in 10.0 mi SE 2.3 mph - N/A   Clear
6:41 AM 53.6 °F - 51.8 °F 94% 30.19 in 10.0 mi SSE 2.3 mph - N/A   Clear
7:01 AM 53.6 °F - 51.8 °F 94% 30.19 in 10.0 mi SSE 2.3 mph - N/A   Clear
7:21 AM 57.2 °F - 55.4 °F 94% 30.19 in 10.0 mi SSE 4.6 mph - N/A   Clear
7:41 AM 60.8 °F - 55.4 °F 82% 30.19 in 10.0 mi SSE 4.6 mph - N/A   Clear
8:01 AM 62.6 °F - 55.4 °F 77% 30.19 in 10.0 mi South 4.6 mph - N/A   Clear
8:21 AM 64.4 °F - 55.4 °F 73% 30.19 in 10.0 mi South 5.8 mph - N/A   Clear
8:41 AM 66.2 °F - 55.4 °F 68% 30.19 in 10.0 mi South 8.1 mph - N/A   Clear
9:01 AM 69.8 °F - 55.4 °F 60% 30.19 in 10.0 mi South 5.8 mph - N/A   Clear
9:21 AM 69.8 °F - 55.4 °F 60% 30.19 in 10.0 mi South 11.5 mph - N/A   Clear
9:41 AM 71.6 °F - 55.4 °F 57% 30.18 in 10.0 mi South 10.4 mph - N/A   Clear
10:01 AM 73.4 °F - 53.6 °F 50% 30.18 in 10.0 mi South 9.2 mph 18.4 mph N/A   Clear
10:21 AM 73.4 °F - 53.6 °F 50% 30.19 in 10.0 mi South 15.0 mph - N/A   Clear
10:41 AM 75.2 °F - 53.6 °F 47% 30.19 in 10.0 mi South 11.5 mph 18.4 mph N/A   Clear
11:01 AM 75.2 °F - 51.8 °F 44% 30.19 in 10.0 mi South 12.7 mph 19.6 mph N/A   Clear
11:21 AM 78.8 °F - 53.6 °F 42% 30.19 in 10.0 mi South 12.7 mph 17.3 mph N/A   Unknown
11:41 AM 78.8 °F - 51.8 °F 39% 30.18 in 10.0 mi South 11.5 mph 20.7 mph N/A   Clear
12:01 PM 78.8 °F - 51.8 °F 39% 30.18 in 10.0 mi South 13.8 mph - N/A   Scattered Clouds
12:21 PM 78.8 °F - 53.6 °F 42% 30.17 in 10.0 mi SSW 9.2 mph - N/A   Scattered Clouds
12:41 PM 78.8 °F - 51.8 °F 39% 30.17 in 10.0 mi SSW 10.4 mph 18.4 mph N/A   Clear
1:01 PM 80.6 °F 80.3 °F 53.6 °F 39% 30.17 in 10.0 mi South 9.2 mph 18.4 mph N/A   Clear
1:21 PM 78.8 °F - 53.6 °F 42% 30.16 in 10.0 mi SSW 6.9 mph 16.1 mph N/A   Scattered Clouds
1:41 PM 80.6 °F 80.3 °F 53.6 °F 39% 30.16 in 10.0 mi SSW 11.5 mph - N/A   Scattered Clouds
2:01 PM 78.8 °F - 53.6 °F 42% 30.15 in 10.0 mi South 10.4 mph 17.3 mph N/A   Scattered Clouds
2:21 PM 80.6 °F 80.3 °F 53.6 °F 39% 30.14 in 10.0 mi SSE 12.7 mph 18.4 mph N/A   Mostly Cloudy
2:41 PM 80.6 °F 80.3 °F 53.6 °F 39% 30.14 in 10.0 mi South 16.1 mph 23.0 mph N/A   Scattered Clouds
3:01 PM 80.6 °F 80.3 °F 53.6 °F 39% 30.13 in 10.0 mi South 13.8 mph 19.6 mph N/A   Scattered Clouds
3:21 PM 80.6 °F 80.3 °F 53.6 °F 39% 30.13 in 10.0 mi South 11.5 mph 18.4 mph N/A   Scattered Clouds
3:41 PM 80.6 °F 80.3 °F 53.6 °F 39% 30.13 in 10.0 mi South 12.7 mph 17.3 mph N/A   Scattered Clouds
4:01 PM 78.8 °F - 53.6 °F 42% 30.13 in 10.0 mi South 9.2 mph 17.3 mph N/A   Mostly Cloudy
4:21 PM 80.6 °F 80.3 °F 53.6 °F 39% 30.13 in 10.0 mi South 10.4 mph - N/A   Scattered Clouds
4:41 PM 80.6 °F 80.3 °F 53.6 °F 39% 30.12 in 10.0 mi South 9.2 mph - N/A   Scattered Clouds
5:01 PM 80.6 °F 80.3 °F 53.6 °F 39% 30.12 in 10.0 mi South 9.2 mph 17.3 mph N/A   Scattered Clouds
5:21 PM 80.6 °F 80.3 °F 53.6 °F 39% 30.12 in 10.0 mi South 12.7 mph 18.4 mph N/A   Scattered Clouds
5:41 PM 78.8 °F - 53.6 °F 42% 30.11 in 10.0 mi South 9.2 mph - N/A   Scattered Clouds
6:01 PM 78.8 °F - 53.6 °F 42% 30.11 in 10.0 mi South 11.5 mph 20.7 mph N/A   Scattered Clouds
6:21 PM 78.8 °F - 53.6 °F 42% 30.11 in 10.0 mi South 10.4 mph 17.3 mph N/A   Scattered Clouds
6:41 PM 78.8 °F - 53.6 °F 42% 30.11 in 10.0 mi South 11.5 mph 19.6 mph N/A   Scattered Clouds
7:01 PM 77.0 °F - 53.6 °F 44% 30.10 in 10.0 mi SSE 11.5 mph - N/A   Scattered Clouds
7:21 PM 75.2 °F - 55.4 °F 50% 30.11 in 10.0 mi South 5.8 mph - N/A   Clear
7:41 PM 73.4 °F - 55.4 °F 53% 30.11 in 10.0 mi SSE 5.8 mph - N/A   Clear
8:01 PM 71.6 °F - 55.4 °F 57% 30.11 in 10.0 mi SSE 6.9 mph - N/A   Clear
8:21 PM 69.8 °F - 55.4 °F 60% 30.11 in 10.0 mi SSE 5.8 mph - N/A   Clear
8:41 PM 68.0 °F - 55.4 °F 64% 30.11 in 10.0 mi SSE 4.6 mph - N/A   Clear
9:01 PM 66.2 °F - 55.4 °F 68% 30.11 in 10.0 mi SSE 4.6 mph - N/A   Clear
9:21 PM 66.2 °F - 55.4 °F 68% 30.11 in 10.0 mi SSE 5.8 mph - N/A   Clear
9:41 PM 66.2 °F - 55.4 °F 68% 30.11 in 10.0 mi SSE 5.8 mph - N/A   Clear
10:01 PM 66.2 °F - 55.4 °F 68% 30.11 in 10.0 mi SSE 6.9 mph - N/A   Clear
10:21 PM 66.2 °F - 55.4 °F 68% 30.11 in 10.0 mi SSE 6.9 mph - N/A   Clear
10:41 PM 66.2 °F - 55.4 °F 68% 30.11 in 10.0 mi SSE 5.8 mph - N/A   Clear
11:01 PM 66.2 °F - 55.4 °F 68% 30.11 in 10.0 mi SSE 5.8 mph - N/A   Clear
11:21 PM 64.4 °F - 55.4 °F 73% 30.10 in 10.0 mi SSE 5.8 mph - N/A   Clear
11:41 PM 64.4 °F - 53.6 °F 68% 30.11 in 10.0 mi SSE 4.6 mph - N/A   Clear